Time,TemperatureF,DewpointF,PressureIn,WindDirection,WindDirectionDegrees,WindSpeedMPH,WindSpeedGustMPH,Humidity,HourlyPrecipIn,Conditions,Clouds,dailyrainin,SoftwareType,DateUTC
2013-05-02 00:01:00,55.0,51.0,-100.00,East,84,1.0,3.0,85,-99.99,,,-99.99,,2013-05-02 07:01:00,
2013-05-02 00:11:00,55.0,50.0,-100.00,ESE,117,2.0,5.0,84,-99.99,,,-99.99,,2013-05-02 07:11:00,
2013-05-02 00:21:00,56.0,51.0,-100.00,East,85,2.0,3.0,83,-99.99,,,-99.99,,2013-05-02 07:21:00,
2013-05-02 00:31:00,57.0,51.0,-100.00,ENE,59,2.0,4.0,81,-99.99,,,-99.99,,2013-05-02 07:31:00,
2013-05-02 01:02:00,58.0,50.0,-100.00,East,86,1.0,3.0,75,-99.99,,,-99.99,,2013-05-02 08:02:00,
2013-05-02 01:11:00,59.0,50.0,-100.00,NE,52,2.0,5.0,73,-99.99,,,-99.99,,2013-05-02 08:11:00,
2013-05-02 01:21:00,59.0,50.0,-100.00,ENE,62,1.0,5.0,71,-99.99,,,-99.99,,2013-05-02 08:21:00,
2013-05-02 01:32:00,59.0,48.0,-100.00,East,95,2.0,2.0,68,-99.99,,,-99.99,,2013-05-02 08:32:00,
2013-05-02 01:42:00,58.0,48.0,-100.00,NE,46,1.0,4.0,69,-99.99,,,-99.99,,2013-05-02 08:42:00,
2013-05-02 01:52:00,58.0,47.0,-100.00,NE,53,1.0,5.0,68,-99.99,,,-99.99,,2013-05-02 08:52:00,
2013-05-02 02:02:00,58.0,46.0,-100.00,ENE,73,1.0,5.0,64,-99.99,,,-99.99,,2013-05-02 09:02:00,
2013-05-02 02:11:00,61.0,40.0,-100.00,ENE,63,1.0,7.0,45,-99.99,,,-99.99,,2013-05-02 09:11:00,
2013-05-02 02:21:00,66.0,21.0,-100.00,ENE,60,4.0,9.0,18,-99.99,,,-99.99,,2013-05-02 09:21:00,
2013-05-02 03:12:00,69.0,8.0,-100.00,NE,52,7.0,14.0,9,-99.99,,,-99.99,,2013-05-02 10:12:00,
2013-05-02 03:22:00,69.0,5.0,-100.00,NE,49,9.0,17.0,8,-99.99,,,-99.99,,2013-05-02 10:22:00,
2013-05-02 03:32:00,69.0,5.0,-100.00,NE,51,10.0,19.0,8,-99.99,,,-99.99,,2013-05-02 10:32:00,
2013-05-02 03:42:00,69.0,8.0,-100.00,NE,54,10.0,16.0,9,-99.99,,,-99.99,,2013-05-02 10:42:00,
2013-05-02 03:52:00,69.0,5.0,-100.00,ENE,59,9.0,21.0,8,-99.99,,,-99.99,,2013-05-02 10:52:00,
2013-05-02 04:02:00,69.0,5.0,-100.00,ENE,62,11.0,21.0,8,-99.99,,,-99.99,,2013-05-02 11:02:00,
2013-05-02 04:11:00,68.0,5.0,-100.00,NE,54,11.0,20.0,8,-99.99,,,-99.99,,2013-05-02 11:11:00,
2013-05-02 04:21:00,68.0,5.0,-100.00,NE,52,11.0,24.0,8,-99.99,,,-99.99,,2013-05-02 11:21:00,
2013-05-02 04:32:00,68.0,5.0,-100.00,NE,51,13.0,22.0,8,-99.99,,,-99.99,,2013-05-02 11:32:00,
2013-05-02 04:41:00,68.0,5.0,-100.00,NE,48,15.0,24.0,8,-99.99,,,-99.99,,2013-05-02 11:41:00,
2013-05-02 04:52:00,68.0,5.0,-100.00,NE,53,15.0,21.0,8,-99.99,,,-99.99,,2013-05-02 11:52:00,
2013-05-02 05:01:00,68.0,5.0,-100.00,NE,54,14.0,22.0,8,-99.99,,,-99.99,,2013-05-02 12:01:00,
2013-05-02 05:11:00,68.0,5.0,-100.00,ENE,63,12.0,20.0,8,-99.99,,,-99.99,,2013-05-02 12:11:00,
2013-05-02 05:21:00,68.0,5.0,-100.00,ENE,64,11.0,18.0,8,-99.99,,,-99.99,,2013-05-02 12:21:00,
2013-05-02 05:32:00,68.0,5.0,-100.00,ENE,60,11.0,21.0,8,-99.99,,,-99.99,,2013-05-02 12:32:00,
2013-05-02 05:42:00,68.0,5.0,-100.00,ENE,60,11.0,21.0,8,-99.99,,,-99.99,,2013-05-02 12:42:00,
2013-05-02 05:52:00,67.0,4.0,-100.00,ENE,64,11.0,17.0,8,-99.99,,,-99.99,,2013-05-02 12:52:00,
2013-05-02 06:01:00,66.0,6.0,-100.00,ENE,69,10.0,17.0,9,-99.99,,,-99.99,,2013-05-02 13:01:00,
2013-05-02 06:11:00,66.0,6.0,-100.00,ENE,68,10.0,18.0,9,-99.99,,,-99.99,,2013-05-02 13:11:00,
2013-05-02 06:21:00,66.0,3.0,-100.00,ENE,67,11.0,22.0,8,-99.99,,,-99.99,,2013-05-02 13:21:00,
2013-05-02 06:31:00,67.0,4.0,-100.00,ENE,64,12.0,26.0,8,-99.99,,,-99.99,,2013-05-02 13:31:00,
2013-05-02 06:41:00,68.0,5.0,-100.00,NE,55,15.0,24.0,8,-99.99,,,-99.99,,2013-05-02 13:41:00,
2013-05-02 06:52:00,67.0,4.0,-100.00,NE,52,15.0,24.0,8,-99.99,,,-99.99,,2013-05-02 13:52:00,
2013-05-02 07:02:00,67.0,4.0,-100.00,NE,50,13.0,23.0,8,-99.99,,,-99.99,,2013-05-02 14:02:00,
2013-05-02 07:11:00,67.0,4.0,-100.00,NE,52,13.0,20.0,8,-99.99,,,-99.99,,2013-05-02 14:11:00,
2013-05-02 07:21:00,67.0,4.0,-100.00,ENE,62,12.0,23.0,8,-99.99,,,-99.99,,2013-05-02 14:21:00,
2013-05-02 07:31:00,68.0,5.0,-100.00,NE,53,13.0,24.0,8,-99.99,,,-99.99,,2013-05-02 14:31:00,
2013-05-02 07:42:00,68.0,5.0,-100.00,NE,43,14.0,29.0,8,-99.99,,,-99.99,,2013-05-02 14:42:00,
2013-05-02 07:52:00,69.0,5.0,-100.00,NE,45,18.0,25.0,8,-99.99,,,-99.99,,2013-05-02 14:52:00,
2013-05-02 08:02:00,69.0,5.0,-100.00,NE,49,17.0,31.0,8,-99.99,,,-99.99,,2013-05-02 15:02:00,
2013-05-02 08:12:00,69.0,5.0,-100.00,NE,49,17.0,26.0,8,-99.99,,,-99.99,,2013-05-02 15:12:00,
2013-05-02 08:21:00,70.0,6.0,-100.00,NE,55,17.0,24.0,8,-99.99,,,-99.99,,2013-05-02 15:21:00,
2013-05-02 08:32:00,70.0,6.0,-100.00,NE,52,17.0,30.0,8,-99.99,,,-99.99,,2013-05-02 15:32:00,
2013-05-02 08:43:00,71.0,4.0,-100.00,NE,52,19.0,32.0,7,-99.99,,,-99.99,,2013-05-02 15:43:00,
2013-05-02 09:02:00,72.0,5.0,-100.00,ENE,58,17.0,32.0,7,-99.99,,,-99.99,,2013-05-02 16:02:00,
2013-05-02 09:13:00,71.0,4.0,-100.00,NE,52,18.0,36.0,7,-99.99,,,-99.99,,2013-05-02 16:13:00,
2013-05-02 09:22:00,71.0,4.0,-100.00,ENE,58,21.0,36.0,7,-99.99,,,-99.99,,2013-05-02 16:22:00,
2013-05-02 09:32:00,72.0,5.0,-100.00,ENE,62,22.0,33.0,7,-99.99,,,-99.99,,2013-05-02 16:32:00,
2013-05-02 09:42:00,72.0,5.0,-100.00,ENE,58,22.0,38.0,7,-99.99,,,-99.99,,2013-05-02 16:42:00,
2013-05-02 09:52:00,72.0,5.0,-100.00,ENE,59,20.0,34.0,7,-99.99,,,-99.99,,2013-05-02 16:52:00,
2013-05-02 10:02:00,72.0,5.0,-100.00,NE,56,21.0,30.0,7,-99.99,,,-99.99,,2013-05-02 17:02:00,
2013-05-02 10:12:00,73.0,5.0,-100.00,NE,53,18.0,30.0,7,-99.99,,,-99.99,,2013-05-02 17:12:00,
2013-05-02 10:22:00,72.0,5.0,-100.00,NE,45,18.0,29.0,7,-99.99,,,-99.99,,2013-05-02 17:22:00,
2013-05-02 10:31:00,72.0,1.0,-100.00,NE,54,17.0,38.0,6,-99.99,,,-99.99,,2013-05-02 17:31:00,
2013-05-02 10:42:00,73.0,2.0,-100.00,NE,54,20.0,31.0,6,-99.99,,,-99.99,,2013-05-02 17:42:00,
2013-05-02 10:51:00,74.0,-1.0,-100.00,NE,56,20.0,29.0,5,-99.99,,,-99.99,,2013-05-02 17:51:00,
2013-05-02 11:01:00,74.0,-1.0,-100.00,NE,56,20.0,32.0,5,-99.99,,,-99.99,,2013-05-02 18:01:00,
2013-05-02 11:11:00,75.0,3.0,-100.00,NE,55,20.0,35.0,6,-99.99,,,-99.99,,2013-05-02 18:11:00,
2013-05-02 11:21:00,75.0,3.0,-100.00,NE,48,17.0,27.0,6,-99.99,,,-99.99,,2013-05-02 18:21:00,
2013-05-02 11:31:00,74.0,3.0,-100.00,NE,48,17.0,33.0,6,-99.99,,,-99.99,,2013-05-02 18:31:00,
2013-05-02 11:41:00,75.0,3.0,-100.00,NE,45,18.0,29.0,6,-99.99,,,-99.99,,2013-05-02 18:41:00,
2013-05-02 11:51:00,75.0,3.0,-100.00,NE,43,17.0,28.0,6,-99.99,,,-99.99,,2013-05-02 18:51:00,
2013-05-02 12:01:00,75.0,3.0,-100.00,NE,43,17.0,29.0,6,-99.99,,,-99.99,,2013-05-02 19:01:00,
2013-05-02 12:11:00,76.0,7.0,-100.00,NE,53,16.0,26.0,7,-99.99,,,-99.99,,2013-05-02 19:11:00,
2013-05-02 12:21:00,76.0,4.0,-100.00,NE,51,14.0,26.0,6,-99.99,,,-99.99,,2013-05-02 19:21:00,
2013-05-02 12:31:00,77.0,5.0,-100.00,NE,34,15.0,26.0,6,-99.99,,,-99.99,,2013-05-02 19:31:00,
2013-05-02 12:41:00,77.0,5.0,-100.00,NE,42,15.0,21.0,6,-99.99,,,-99.99,,2013-05-02 19:41:00,
2013-05-02 12:52:00,77.0,1.0,-100.00,NE,41,13.0,25.0,5,-99.99,,,-99.99,,2013-05-02 19:52:00,
2013-05-02 13:01:00,77.0,1.0,-100.00,NE,45,16.0,21.0,5,-99.99,,,-99.99,,2013-05-02 20:01:00,
2013-05-02 13:11:00,77.0,1.0,-100.00,NE,37,13.0,23.0,5,-99.99,,,-99.99,,2013-05-02 20:11:00,
2013-05-02 13:21:00,77.0,1.0,-100.00,NE,45,13.0,23.0,5,-99.99,,,-99.99,,2013-05-02 20:21:00,
2013-05-02 13:32:00,78.0,6.0,-100.00,NNE,33,14.0,20.0,6,-99.99,,,-99.99,,2013-05-02 20:32:00,
2013-05-02 13:41:00,78.0,6.0,-100.00,NNE,26,13.0,21.0,6,-99.99,,,-99.99,,2013-05-02 20:41:00,
2013-05-02 13:52:00,79.0,6.0,-100.00,NE,38,13.0,22.0,6,-99.99,,,-99.99,,2013-05-02 20:52:00,
2013-05-02 14:01:00,78.0,6.0,-100.00,NE,37,12.0,23.0,6,-99.99,,,-99.99,,2013-05-02 21:01:00,
2013-05-02 14:11:00,79.0,6.0,-100.00,NNE,25,13.0,19.0,6,-99.99,,,-99.99,,2013-05-02 21:11:00,
2013-05-02 14:21:00,78.0,6.0,-100.00,NE,36,12.0,20.0,6,-99.99,,,-99.99,,2013-05-02 21:21:00,
2013-05-02 14:33:00,78.0,6.0,-100.00,NE,38,13.0,20.0,6,-99.99,,,-99.99,,2013-05-02 21:33:00,
2013-05-02 14:42:00,78.0,6.0,-100.00,NE,39,13.0,21.0,6,-99.99,,,-99.99,,2013-05-02 21:42:00,
2013-05-02 14:53:00,78.0,6.0,-100.00,NE,38,14.0,20.0,6,-99.99,,,-99.99,,2013-05-02 21:53:00,
2013-05-02 15:02:00,79.0,2.0,-100.00,NE,37,13.0,17.0,5,-99.99,,,-99.99,,2013-05-02 22:02:00,
2013-05-02 15:12:00,79.0,6.0,-100.00,NE,44,11.0,18.0,6,-99.99,,,-99.99,,2013-05-02 22:12:00,
2013-05-02 15:22:00,79.0,6.0,-100.00,NE,52,11.0,15.0,6,-99.99,,,-99.99,,2013-05-02 22:22:00,
2013-05-02 15:32:00,80.0,7.0,-100.00,NNE,19,10.0,15.0,6,-99.99,,,-99.99,,2013-05-02 22:32:00,
2013-05-02 15:42:00,80.0,3.0,-100.00,North,6,8.0,13.0,5,-99.99,,,-99.99,,2013-05-02 22:42:00,
2013-05-02 15:52:00,80.0,3.0,-100.00,North,4,6.0,13.0,5,-99.99,,,-99.99,,2013-05-02 22:52:00,
2013-05-02 16:02:00,81.0,4.0,-100.00,North,355,5.0,11.0,5,-99.99,,,-99.99,,2013-05-02 23:02:00,
2013-05-02 16:11:00,82.0,4.0,-100.00,North,354,3.0,10.0,5,-99.99,,,-99.99,,2013-05-02 23:11:00,
2013-05-02 16:22:00,81.0,4.0,-100.00,North,8,5.0,10.0,5,-99.99,,,-99.99,,2013-05-02 23:22:00,
2013-05-02 16:31:00,81.0,4.0,-100.00,NNE,31,5.0,12.0,5,-99.99,,,-99.99,,2013-05-02 23:31:00,
2013-05-02 16:42:00,82.0,4.0,-100.00,NNE,27,5.0,13.0,5,-99.99,,,-99.99,,2013-05-02 23:42:00,
2013-05-02 16:51:00,81.0,8.0,-100.00,NE,35,8.0,13.0,6,-99.99,,,-99.99,,2013-05-02 23:51:00,
2013-05-02 17:01:00,81.0,8.0,-100.00,NE,34,8.0,16.0,6,-99.99,,,-99.99,,2013-05-03 00:01:00,
2013-05-02 17:11:00,80.0,7.0,-100.00,NNE,24,9.0,18.0,6,-99.99,,,-99.99,,2013-05-03 00:11:00,
2013-05-02 17:21:00,80.0,7.0,-100.00,NNE,29,9.0,15.0,6,-99.99,,,-99.99,,2013-05-03 00:21:00,
2013-05-02 17:31:00,79.0,6.0,-100.00,NNE,32,10.0,17.0,6,-99.99,,,-99.99,,2013-05-03 00:31:00,
2013-05-02 17:41:00,79.0,6.0,-100.00,NNE,32,10.0,17.0,6,-99.99,,,-99.99,,2013-05-03 00:41:00,
2013-05-02 17:52:00,79.0,6.0,-100.00,NNE,22,10.0,18.0,6,-99.99,,,-99.99,,2013-05-03 00:52:00,
2013-05-02 18:01:00,78.0,6.0,-100.00,NE,37,10.0,17.0,6,-99.99,,,-99.99,,2013-05-03 01:01:00,
2013-05-02 18:11:00,78.0,6.0,-100.00,NE,34,12.0,17.0,6,-99.99,,,-99.99,,2013-05-03 01:11:00,
2013-05-02 18:21:00,77.0,5.0,-100.00,NE,44,10.0,18.0,6,-99.99,,,-99.99,,2013-05-03 01:21:00,
2013-05-02 18:31:00,77.0,5.0,-100.00,NE,40,10.0,19.0,6,-99.99,,,-99.99,,2013-05-03 01:31:00,
2013-05-02 18:41:00,76.0,4.0,-100.00,NE,41,13.0,17.0,6,-99.99,,,-99.99,,2013-05-03 01:41:00,
2013-05-02 18:52:00,76.0,4.0,-100.00,NE,47,11.0,23.0,6,-99.99,,,-99.99,,2013-05-03 01:52:00,
2013-05-02 19:01:00,75.0,3.0,-100.00,NE,47,12.0,19.0,6,-99.99,,,-99.99,,2013-05-03 02:01:00,
2013-05-02 19:11:00,75.0,3.0,-100.00,NE,36,12.0,17.0,6,-99.99,,,-99.99,,2013-05-03 02:11:00,
2013-05-02 19:21:00,74.0,3.0,-100.00,NE,47,9.0,17.0,6,-99.99,,,-99.99,,2013-05-03 02:21:00,
2013-05-02 19:31:00,74.0,3.0,-100.00,NE,46,10.0,19.0,6,-99.99,,,-99.99,,2013-05-03 02:31:00,
2013-05-02 19:41:00,73.0,2.0,-100.00,NE,38,11.0,17.0,6,-99.99,,,-99.99,,2013-05-03 02:41:00,
2013-05-02 19:52:00,73.0,2.0,-100.00,NE,52,9.0,18.0,6,-99.99,,,-99.99,,2013-05-03 02:52:00,
2013-05-02 20:01:00,72.0,1.0,-100.00,NE,48,10.0,17.0,6,-99.99,,,-99.99,,2013-05-03 03:01:00,
2013-05-02 20:11:00,72.0,1.0,-100.00,NE,50,10.0,17.0,6,-99.99,,,-99.99,,2013-05-03 03:11:00,
2013-05-02 20:21:00,72.0,1.0,-100.00,NE,50,10.0,20.0,6,-99.99,,,-99.99,,2013-05-03 03:21:00,
2013-05-02 20:32:00,71.0,1.0,-100.00,NE,45,11.0,18.0,6,-99.99,,,-99.99,,2013-05-03 03:32:00,
2013-05-02 20:42:00,71.0,1.0,-100.00,NE,42,10.0,15.0,6,-99.99,,,-99.99,,2013-05-03 03:42:00,
2013-05-02 20:52:00,70.0,0.0,-100.00,NE,43,10.0,15.0,6,-99.99,,,-99.99,,2013-05-03 03:52:00,
2013-05-02 21:02:00,70.0,0.0,-100.00,NE,46,9.0,15.0,6,-99.99,,,-99.99,,2013-05-03 04:02:00,
2013-05-02 21:12:00,71.0,1.0,-100.00,NE,55,9.0,19.0,6,-99.99,,,-99.99,,2013-05-03 04:12:00,
2013-05-02 21:22:00,71.0,1.0,-100.00,ENE,57,11.0,16.0,6,-99.99,,,-99.99,,2013-05-03 04:22:00,
2013-05-02 21:32:00,67.0,1.0,-100.00,ENE,71,10.0,10.0,7,-99.99,,,-99.99,,2013-05-03 04:32:00,
2013-05-02 21:42:00,67.0,1.0,-100.00,ENE,71,7.0,8.0,7,-99.99,,,-99.99,,2013-05-03 04:42:00,
2013-05-02 21:52:00,66.0,0.0,-100.00,ENE,71,7.0,8.0,7,-99.99,,,-99.99,,2013-05-03 04:52:00,
2013-05-02 22:02:00,66.0,3.0,-100.00,ENE,70,7.0,8.0,8,-99.99,,,-99.99,,2013-05-03 05:02:00,
2013-05-02 22:11:00,66.0,3.0,-100.00,ENE,77,6.0,9.0,8,-99.99,,,-99.99,,2013-05-03 05:11:00,
2013-05-02 22:21:00,65.0,2.0,-100.00,ENE,71,7.0,9.0,8,-99.99,,,-99.99,,2013-05-03 05:21:00,
2013-05-02 22:32:00,66.0,3.0,-100.00,ENE,76,6.0,9.0,8,-99.99,,,-99.99,,2013-05-03 05:32:00,
2013-05-02 22:42:00,66.0,3.0,-100.00,East,83,6.0,7.0,8,-99.99,,,-99.99,,2013-05-03 05:42:00,
2013-05-02 22:52:00,67.0,1.0,-100.00,East,94,6.0,8.0,7,-99.99,,,-99.99,,2013-05-03 05:52:00,
2013-05-02 23:01:00,66.0,0.0,-100.00,ENE,59,5.0,5.0,7,-99.99,,,-99.99,,2013-05-03 06:01:00,
2013-05-02 23:11:00,66.0,3.0,-100.00,NE,46,2.0,5.0,8,-99.99,,,-99.99,,2013-05-03 06:11:00,
2013-05-02 23:21:00,66.0,3.0,-100.00,ENE,60,2.0,5.0,8,-99.99,,,-99.99,,2013-05-03 06:21:00,
2013-05-02 23:31:00,65.0,2.0,-100.00,ENE,70,3.0,5.0,8,-99.99,,,-99.99,,2013-05-03 06:31:00,
2013-05-02 23:42:00,66.0,3.0,-100.00,ENE,59,3.0,4.0,8,-99.99,,,-99.99,,2013-05-03 06:42:00,
2013-05-02 23:51:00,66.0,0.0,-100.00,ENE,58,3.0,6.0,7,-99.99,,,-99.99,,2013-05-03 06:51:00,